Weather History for KNSE - April, 2013

Change the Weather History Date:

Monday, April 22, 2013

  Actual Average Record
Temperature  
Mean Temperature 66 °F -  
Max Temperature 73 °F 76 °F 86 °F (2008)
Min Temperature 59 °F 56 °F 48 °F (1998)
Growing Degree Days 16 (Base 50)    
Moisture  
Dew Point 52 °F    
Average Humidity 63    
Maximum Humidity 80    
Minimum Humidity 48    
Precipitation  
Precipitation 0.00 in - - ()
Sea Level Pressure  
Sea Level Pressure 30.08 in    
Wind  
Wind Speed 6 mph (ENE)    
Max Wind Speed 10 mph    
Max Gust Speed -    
Visibility 10 miles    
Events      
Averages and records for this station are not official NWS values.
T = Trace of Precipitation, MM = Missing Value Source: NWS Daily Summary

Daily Weather History Graph

Daily Weather History Graph

Search for Another Location

Airport or City:

Trip Planner

Search our weather history database for the weather conditions in past years. The results will help you decide how hot, cold, wet, or windy it might be!

Date:

Astronomy

Apr. 22, 2013 Rise Set
Actual Time 6:12 AM CDT 7:20 PM CDT
Civil Twilight 5:47 AM CDT 7:45 PM CDT
Nautical Twilight 5:17 AM CDT 8:15 PM CDT
Astronomical Twilight 4:47 AM CDT 8:46 PM CDT
Moon 4:20 PM CDT (4/22) 3:53 AM CDT (4/22)
Length of Visible Light 13h 58m
Length of Day
13h 08m
Waxing Gibbous, 88% of the Moon is Illuminated
Apr 22
Waxing Gibbous
Apr 25
Full
May 2
Last Quarter
May 9
New
May 17
First Quarter

Hourly Weather History & Observations

Time (CDT) Temp. Dew Point Humidity Pressure Visibility Wind Dir Wind Speed Gust Speed Precip Events Conditions
12:56 AM 61.0 °F 41.0 °F 48% 30.10 in 10.0 mi North 3.5 mph - N/A   Overcast
1:56 AM 61.0 °F 42.1 °F 50% 30.08 in 10.0 mi NE 3.5 mph - N/A   Overcast
2:56 AM 60.1 °F 44.1 °F 55% 30.06 in 10.0 mi ENE 6.9 mph - 0.00 in   Mostly Cloudy
3:56 AM 60.1 °F 45.0 °F 57% 30.06 in 10.0 mi ENE 6.9 mph - N/A   Overcast
4:47 AM 60.8 °F 46.4 °F 59% 30.10 in 10.0 mi ENE 5.8 mph - N/A   Overcast
4:56 AM 60.1 °F 46.0 °F 60% 30.06 in 10.0 mi ENE 5.8 mph - N/A   Overcast
5:56 AM 59.0 °F 48.0 °F 67% 30.07 in 10.0 mi ENE 5.8 mph - N/A   Mostly Cloudy
6:56 AM 59.0 °F 48.0 °F 67% 30.09 in 10.0 mi NE 4.6 mph - N/A   Mostly Cloudy
7:56 AM 61.0 °F 50.0 °F 67% 30.10 in 10.0 mi ENE 9.2 mph - N/A   Mostly Cloudy
8:56 AM 66.0 °F 52.0 °F 60% 30.12 in 10.0 mi East 10.4 mph - N/A   Mostly Cloudy
9:56 AM 66.0 °F 53.1 °F 63% 30.13 in 10.0 mi East 6.9 mph - N/A   Overcast
10:56 AM 68.0 °F 55.0 °F 63% 30.13 in 10.0 mi East 5.8 mph - N/A   Overcast
11:56 AM 70.0 °F 55.9 °F 61% 30.12 in 10.0 mi ENE 5.8 mph - N/A   Overcast
12:56 PM 71.1 °F 55.9 °F 59% 30.10 in 10.0 mi East 9.2 mph - N/A   Overcast
1:56 PM 71.1 °F 55.9 °F 59% 30.09 in 10.0 mi ENE 10.4 mph - N/A   Overcast
2:56 PM 72.0 °F 55.9 °F 57% 30.07 in 10.0 mi ENE 4.6 mph - N/A   Overcast
2:58 PM 71.6 °F 55.4 °F 57% 30.11 in 10.0 mi Calm Calm - N/A   Overcast
3:56 PM 70.0 °F 55.9 °F 61% 30.06 in 10.0 mi East 8.1 mph - N/A   Overcast
4:56 PM 71.1 °F 57.0 °F 61% 30.06 in 10.0 mi ENE 9.2 mph - N/A   Mostly Cloudy
5:56 PM 70.0 °F 55.9 °F 61% 30.06 in 10.0 mi NE 6.9 mph - N/A   Mostly Cloudy
6:56 PM 66.9 °F 55.9 °F 68% 30.05 in 10.0 mi East 10.4 mph - N/A   Mostly Cloudy
7:56 PM 64.0 °F 55.9 °F 75% 30.05 in 10.0 mi ENE 4.6 mph - N/A   Scattered Clouds
8:56 PM 62.1 °F 55.0 °F 78% 30.06 in 10.0 mi East 5.8 mph - N/A   Clear
9:56 PM 61.0 °F 54.0 °F 78% 30.08 in 10.0 mi ENE 4.6 mph - N/A   Clear
10:56 PM 60.1 °F 54.0 °F 80% 30.07 in 10.0 mi East 5.8 mph - N/A   Clear
11:56 PM 60.1 °F 54.0 °F 80% 30.07 in 10.0 mi East 3.5 mph - N/A   Clear